Location: Bonningues
(50.7927°N, 2.0150°E)
Time: 05:33:49
(UTC+00:00)

Meteor 1-25 Rocket - Pass Details

Date: 08 August 2020
Orbit: 837 x 891 km, 81.2° (Epoch: 19 September)

Event Time Altitude Azimuth Distance (km) Brightness Sun altitude
Exits shadow 21:17:55 14° 178° (S) 2,150 5.9 -14.8°
Maximum altitude 21:22:38 68° 98° (E) 911 4.2 -15.3°
Drops below altitude 10° 21:28:13 10° 17° (NNE) 2,490 7.1 -15.8°
Sets 21:30:40 0° 15° (NNE) 3,438 7.9 -16.1°
